[[{"header":{"parameterUnit":"m.s-1","parameterCategory":1,"la1":30.2991,"la2":30.254,"lo1":-89.0895,"lo2":-89.0444,"dy":0.0017,"dx":0.0017,"nx":28,"ny":28,"refTime":"2023-09-16T03:00:00:Z","depth":0,"parameterNumber":2,"parameterNumberName":"U-component_of_WINDS"},"data":[0,0,0,0,0,0,0,0,0,0,0,0,0,0,0,0,0,0,0,0,0,0,0,0,0,0,0,0,0,0,0,0,0,0,0,0,0,0,0,0,0,0,0,0,0,0,0,0,0,0,0,0,0,0,0,0,0,0,-0.0723,-0.0723,0,-0.0702,-0.0701,-0.0701,-0.0692,-0.0692,-0.0692,-0.0692,-0.0668,-0.0667,-0.0666,0,0,0,0,0,0,0,0,0,0,0,0,0,-0.0754,-0.0754,-0.0723,-0.0723,-0.0723,-0.0702,-0.0701,-0.0701,-0.0692,-0.0692,-0.0692,-0.0692,-0.0668,-0.0667,-0.0666,0,0,0,0,0,0,0,0,0,0,0,0,0,-0.0737,-0.0753,-0.0723,-0.0715,-0.0715,-0.0702,-0.0701,-0.0701,-0.0692,-0.0692,-0.0692,-0.0692,-0.0668,-0.0667,-0.0666,-0.0659,0,0,-0.0663,-0.0663,0,0,0,0,0,0,0,0,-0.0738,-0.0736,-0.0717,-0.0716,-0.0715,-0.0699,-0.0703,-0.0687,-0.0692,-0.07,-0.0692,-0.0692,-0.0678,-0.0676,-0.0672,-0.0658,-0.0657,-0.0663,-0.0662,-0.0662,-0.0662,0,0,0,0,0,0,0,-0.074,-0.0737,-0.0715,-0.0717,-0.0715,-0.0712,-0.071,-0.07,-0.0689,-0.0699,-0.0699,-0.0696,-0.0677,-0.0673,-0.0671,-0.0656,-0.0663,-0.0662,-0.0661,-0.0661,-0.0635,-0.0635,0,0,0,0,0,0,-0.0742,-0.0738,-0.0715,-0.0714,-0.0727,-0.0712,-0.0709,-0.0704,-0.0689,-0.0687,-0.0696,-0.0696,-0.0675,-0.0672,-0.067,-0.0661,-0.0662,-0.0661,-0.066,-0.0635,-0.0635,-0.0635,0,0,0,0,0,0,-0.0743,-0.074,-0.0716,-0.0726,-0.0723,-0.0711,-0.0706,-0.0704,-0.0699,-0.0687,-0.0685,-0.0694,-0.0675,-0.0672,-0.0662,-0.066,-0.066,-0.066,-0.0635,-0.0635,-0.0635,-0.0642,0,0,0,0,0,0,-0.0744,-0.0741,-0.0738,-0.0726,-0.0722,-0.0709,-0.0706,-0.0703,-0.0698,-0.0697,-0.0684,-0.0682,-0.0674,-0.0663,-0.0661,-0.0658,-0.0659,-0.0635,-0.0635,-0.0635,-0.0642,-0.0642,-0.0642,0,0,0,0,0,-0.0745,-0.0741,-0.0738,-0.0736,-0.0719,-0.0709,-0.0706,-0.0699,-0.0698,-0.0695,-0.0687,-0.0682,-0.0661,-0.0662,-0.066,-0.0657,-0.0635,-0.0635,-0.0635,-0.0641,-0.0642,-0.0642,0,0,0,0,0,0,-0.0753,-0.0739,-0.0736,-0.0728,-0.072,-0.0707,-0.0703,-0.0699,-0.069,-0.069,-0.068,-0.0677,-0.0668,-0.0661,-0.0664,-0.0649,-0.0647,-0.0646,-0.0654,-0.0654,-0.0654,-0.0656,-0.0658,0,0,0,0,0,-0.0754,-0.0747,-0.0735,-0.0729,-0.0725,-0.0715,-0.071,-0.0705,-0.0695,-0.0692,-0.0683,-0.0673,-0.0664,-0.0659,-0.065,-0.0641,-0.0637,-0.0637,-0.0637,-0.0638,-0.0637,-0.0631,-0.0631,-0.0634,-0.0634,-0.0634,0,0,-0.0755,-0.0747,-0.0743,-0.073,-0.0723,-0.0716,-0.0712,-0.0704,-0.0699,-0.069,-0.0681,-0.0674,-0.0662,-0.0653,-0.0648,-0.0647,-0.0635,-0.0637,-0.0638,-0.0637,-0.0631,-0.0631,-0.063,-0.0634,-0.0634,-0.0634,0,0,-0.0754,-0.0747,-0.0741,-0.0734,-0.0724,-0.0717,-0.0716,-0.0704,-0.0699,-0.0689,-0.0683,-0.0675,-0.066,-0.0652,-0.0646,-0.0642,-0.0637,-0.0639,-0.064,-0.0635,-0.0635,-0.0634,-0.0633,-0.0632,-0.0639,-0.0639,-0.0639,0,-0.0757,-0.0746,-0.0739,-0.0731,-0.0726,-0.0718,-0.0712,-0.0705,-0.0692,-0.0688,-0.0687,-0.0668,-0.066,-0.0648,-0.0647,-0.0643,-0.064,-0.0641,-0.0636,-0.0635,-0.0635,-0.0633,-0.0632,-0.0639,-0.0639,-0.0639,-0.0639,0,-0.075,-0.0743,-0.0739,-0.0727,-0.0721,-0.0714,-0.0705,-0.07,-0.0695,-0.0688,-0.0678,-0.0668,-0.0656,-0.0653,-0.0648,-0.0641,-0.064,-0.0638,-0.0636,-0.0635,-0.0633,-0.0632,-0.064,-0.064,-0.0639,-0.0639,0,0,-0.0753,-0.0737,-0.0736,-0.0731,-0.0718,-0.0712,-0.0705,-0.0694,-0.069,-0.0681,-0.0674,-0.0661,-0.0659,-0.0652,-0.0646,-0.0641,-0.0638,-0.0639,-0.0638,-0.0639,-0.0628,-0.063,-0.063,-0.0635,-0.0634,-0.0634,-0.0629,0,-0.0751,-0.0738,-0.073,-0.072,-0.0713,-0.0706,-0.0699,-0.069,-0.0684,-0.0676,-0.0668,-0.066,-0.0657,-0.0653,-0.0648,-0.0639,-0.0636,-0.064,-0.0627,-0.0627,-0.063,-0.0629,-0.0631,-0.0627,-0.0628,-0.0628,-0.0628,0,-0.0746,-0.0737,-0.0727,-0.0715,-0.0712,-0.0706,-0.0696,-0.0689,-0.0678,-0.0674,-0.0666,-0.066,-0.0651,-0.0651,-0.0638,-0.0641,-0.0635,-0.063,-0.063,-0.0628,-0.0628,-0.0627,-0.0625,-0.0624,-0.0627,-0.0627,-0.0627,0,-0.0749,-0.0735,-0.0727,-0.0722,-0.0708,-0.0704,-0.0698,-0.0688,-0.0682,-0.0673,-0.0669,-0.0659,-0.0653,-0.0645,-0.0636,-0.0636,-0.0624,-0.0622,-0.0619,-0.062,-0.0617,-0.0617,-0.0614,-0.0614,-0.0614,-0.0614,-0.0614,0,-0.0746,-0.074,-0.0728,-0.0723,-0.0715,-0.0706,-0.0699,-0.0692,-0.0683,-0.0676,-0.0669,-0.0662,-0.0651,-0.0643,-0.0636,-0.0626,-0.0624,-0.0619,-0.0617,-0.062,-0.062,-0.0616,-0.0616,-0.0614,-0.0614,-0.0614,-0.0614,0,-0.0749,-0.074,-0.0731,-0.0719,-0.0715,-0.071,-0.07,-0.0694,-0.0687,-0.0678,-0.0675,-0.0664,-0.0654,-0.0644,-0.0631,-0.0626,-0.0616,-0.0614,-0.062,-0.0619,-0.0616,-0.0616,-0.061,-0.0608,-0.0609,-0.0609,-0.0609,0,-0.0748,-0.0743,-0.073,-0.0725,-0.0719,-0.0711,-0.0705,-0.0696,-0.069,-0.0678,-0.0674,-0.0663,-0.0655,-0.0639,-0.0629,-0.0618,-0.0615,-0.0614,-0.0614,-0.0616,-0.0615,-0.0615,-0.0615,-0.0614,-0.0614,-0.0614,-0.0614,0,-0.0746,-0.0743,-0.0735,-0.0725,-0.0718,-0.071,-0.0702,-0.0698,-0.0687,-0.0681,-0.0671,-0.0664,-0.065,-0.064,-0.0628,-0.0621,-0.0615,-0.0614,-0.0613,-0.0615,-0.0619,-0.0617,-0.062,-0.0614,-0.0614,-0.0614,-0.0614,-0.0614,-0.0747,-0.0742,-0.0732,-0.0723,-0.0716,-0.0709,-0.0703,-0.0695,-0.0687,-0.0675,-0.067,-0.066,-0.0649,-0.0633,-0.0626,-0.0617,-0.0616,-0.0614,-0.0614,-0.0613,-0.0614,-0.0621,-0.0615,-0.0615,-0.0615,-0.0615,-0.0615,0,-0.0745,-0.0739,-0.0731,-0.0719,-0.0712,-0.0708,-0.0699,-0.0693,-0.0684,-0.0675,-0.0667,-0.0655,-0.0644,-0.0634,-0.0623,-0.0618,-0.0615,-0.0615,-0.0615,-0.0614,-0.0616,-0.0618,-0.0618,-0.0618,-0.0618,-0.0618,-0.0618,-0.0618,-0.0744,-0.0735,-0.073,-0.0717,-0.071,-0.0701,-0.0696,-0.0688,-0.0681,-0.0668,-0.066,-0.0653,-0.0643,-0.0631,-0.0621,-0.0618,-0.0614,-0.0615,-0.0612,-0.0614,-0.0614,-0.0613,-0.0615,-0.0615,-0.0615,-0.061,-0.061,-0.061]},{"header":{"parameterUnit":"m.s-1","parameterCategory":1,"la1":30.2991,"la2":30.254,"lo1":-89.0895,"lo2":-89.0444,"dy":0.0017,"dx":0.0017,"nx":28,"ny":28,"refTime":"2023-09-16T03:00:00:Z","depth":0,"parameterNumber":3,"parameterNumberName":"V-component_of_WINDS"},"data":[0,0,0,0,0,0,0,0,0,0,0,0,0,0,0,0,0,0,0,0,0,0,0,0,0,0,0,0,0,0,0,0,0,0,0,0,0,0,0,0,0,0,0,0,0,0,0,0,0,0,0,0,0,0,0,0,0,0,2.0361,2.0361,0,2.0328,2.0327,2.0327,2.0339,2.034,2.0341,2.0342,2.0303,2.0301,2.03,0,0,0,0,0,0,0,0,0,0,0,0,0,2.0431,2.043,2.0361,2.0361,2.036,2.0328,2.0327,2.0327,2.0339,2.034,2.0341,2.0342,2.0304,2.0302,2.0299,0,0,0,0,0,0,0,0,0,0,0,0,0,2.0399,2.0429,2.0361,2.0363,2.0363,2.0328,2.0327,2.0327,2.0339,2.034,2.0341,2.0342,2.0304,2.0302,2.0299,2.026,0,0,2.0291,2.029,0,0,0,0,0,0,0,0,2.0401,2.0397,2.0363,2.0363,2.0362,2.0339,2.0338,2.0304,2.0339,2.0348,2.0342,2.0343,2.0314,2.031,2.0301,2.0258,2.0256,2.0291,2.0289,2.0288,2.0287,0,0,0,0,0,0,0,2.0403,2.0398,2.0348,2.0362,2.0362,2.0363,2.036,2.0331,2.0324,2.0347,2.0348,2.0344,2.0314,2.0304,2.0301,2.0256,2.0291,2.0289,2.0287,2.0286,2.0174,2.0173,0,0,0,0,0,0,2.0406,2.04,2.0349,2.0347,2.0385,2.0361,2.0358,2.0345,2.0325,2.0323,2.0343,2.0345,2.0308,2.0304,2.0299,2.0249,2.0288,2.0286,2.0284,2.0175,2.0174,2.0172,0,0,0,0,0,0,2.0408,2.0402,2.035,2.0374,2.0367,2.0359,2.0345,2.0344,2.0334,2.0322,2.032,2.0334,2.0309,2.0303,2.0269,2.0248,2.0285,2.0282,2.0177,2.0175,2.0173,2.0149,0,0,0,0,0,0,2.041,2.0402,2.0388,2.0373,2.0366,2.0322,2.0344,2.0342,2.033,2.0332,2.0313,2.0311,2.0309,2.0273,2.0266,2.0245,2.028,2.0179,2.0176,2.0173,2.0152,2.0147,2.0142,0,0,0,0,0,2.0412,2.0383,2.0388,2.0381,2.0349,2.0321,2.0316,2.0315,2.0328,2.0313,2.0305,2.0312,2.0252,2.0269,2.0262,2.0239,2.018,2.0177,2.0174,2.0154,2.0148,2.0142,0,0,0,0,0,0,2.0395,2.0381,2.0386,2.0352,2.0337,2.0323,2.0304,2.0309,2.029,2.0292,2.0291,2.0286,2.025,2.0242,2.0262,2.0198,2.0217,2.0213,2.0205,2.0199,2.0194,2.0196,2.0278,0,0,0,0,0,2.0387,2.0367,2.0356,2.0326,2.0319,2.0313,2.03,2.0301,2.0285,2.0279,2.0269,2.0252,2.0229,2.0214,2.0192,2.0151,2.0145,2.0132,2.0127,2.0123,2.0118,2.0093,2.0085,2.0162,2.0162,2.0162,0,0,2.0371,2.0361,2.0348,2.0322,2.0311,2.0288,2.0307,2.0283,2.0265,2.0275,2.0242,2.0233,2.0214,2.0176,2.0158,2.0167,2.0096,2.0119,2.0116,2.0113,2.0089,2.0081,2.0075,2.016,2.016,2.016,0,0,2.0329,2.0321,2.0293,2.0282,2.0265,2.0261,2.0255,2.0239,2.0234,2.0201,2.0207,2.0185,2.0146,2.0132,2.0119,2.0069,2.0074,2.0062,2.0036,2.0011,2.0005,1.9999,1.9978,1.9971,2.0058,2.0058,2.0058,0,2.031,2.0277,2.0279,2.0253,2.024,2.0249,2.022,2.0208,2.0185,2.0175,2.0186,2.0136,2.0124,2.008,2.0068,2.0059,2.0049,2.0064,2.0006,2.0001,1.9995,1.9975,1.9968,2.0056,2.0057,2.0057,2.0057,0,2.0253,2.023,2.021,2.0188,2.0173,2.0146,2.0141,2.0125,2.0127,2.012,2.0085,2.0071,2.0045,2.0035,2.0037,1.9991,1.9997,2.0007,2.0026,1.9987,1.9967,1.996,2.0054,2.0055,2.0055,2.0056,0,0,2.0199,2.0177,2.0169,2.0158,2.0139,2.012,2.0093,2.0068,2.0053,2.0037,2.0011,1.9978,1.9986,1.9972,1.9971,1.995,1.9907,1.9962,1.9962,1.995,1.9852,1.9842,1.9833,1.9911,1.9909,1.9908,1.9852,0,2.0153,2.0105,2.0105,2.006,2.0037,2.0044,2.0019,2.0004,1.9997,1.9975,1.9967,1.9942,1.9957,1.9948,1.9927,1.9917,1.9887,1.9921,1.9884,1.9882,1.9886,1.9824,1.9814,1.9762,1.9845,1.9844,1.9843,0,2.0093,2.0074,2.0027,2.001,2.0,1.9978,1.9954,1.9934,1.9916,1.9912,1.9895,1.9897,1.9866,1.9887,1.9842,1.9865,1.985,1.9843,1.984,1.9835,1.9858,1.9813,1.9746,1.9736,1.9832,1.9833,1.9834,0,2.0054,2.0017,1.9984,1.9974,1.9954,1.9937,1.9928,1.9911,1.9895,1.9874,1.9864,1.9839,1.9824,1.9804,1.9798,1.9815,1.9752,1.9774,1.9745,1.9745,1.973,1.973,1.9655,1.9725,1.9725,1.9725,1.9725,0,2.0001,1.9971,1.9965,1.9944,1.991,1.9909,1.9875,1.9866,1.9851,1.9826,1.9831,1.9808,1.9803,1.9778,1.9773,1.9734,1.9728,1.9722,1.9721,1.972,1.972,1.9708,1.971,1.9723,1.9723,1.9724,1.9724,0,1.9951,1.9947,1.991,1.9893,1.9888,1.9863,1.9848,1.9827,1.982,1.9789,1.9782,1.9771,1.9741,1.9734,1.9698,1.9695,1.9648,1.9652,1.9654,1.9654,1.9624,1.9626,1.9536,1.9523,1.9604,1.9603,1.9603,0,1.9916,1.9893,1.9874,1.9859,1.9849,1.9824,1.9808,1.9806,1.9788,1.9765,1.9745,1.9716,1.9693,1.9644,1.9632,1.9604,1.9604,1.9575,1.96,1.9599,1.96,1.96,1.9596,1.9569,1.9569,1.9568,1.9567,0,1.9854,1.9852,1.983,1.9806,1.9787,1.9768,1.975,1.9736,1.9731,1.9711,1.9681,1.9663,1.9626,1.9596,1.9568,1.9555,1.9559,1.956,1.9551,1.9549,1.955,1.9545,1.9638,1.9561,1.9562,1.9562,1.9563,1.9563,1.9808,1.9787,1.977,1.9744,1.973,1.9712,1.969,1.9681,1.9657,1.9627,1.9627,1.9593,1.9573,1.9535,1.9521,1.9493,1.9501,1.949,1.9486,1.9482,1.9478,1.9557,1.9488,1.9488,1.9488,1.9488,1.9489,0,1.9743,1.9732,1.9709,1.9683,1.9662,1.9669,1.9649,1.963,1.9601,1.9582,1.9559,1.9522,1.9493,1.9478,1.9447,1.9427,1.9428,1.9419,1.9419,1.9415,1.9474,1.9483,1.9419,1.9419,1.9419,1.9419,1.9419,1.9419,1.9707,1.967,1.9666,1.9622,1.9611,1.9579,1.9566,1.9548,1.9533,1.9493,1.9469,1.946,1.9441,1.9409,1.9381,1.9377,1.9364,1.9354,1.9351,1.9405,1.9412,1.9418,1.9427,1.9352,1.9352,1.9294,1.9293,1.9293]}]]